[[[{"header":{"parameterUnit":"kt","parameterCategory":2,"dx":1,"dy":1,"la1":30.253999710083008,"la2":30.299108505249023,"lo1":-89.0895004272461,"lo2":-89.04439544677734,"nx":28,"ny":28,"refTime":"2022-10-25T21:00:00:Z","depth":0,"parameterNumber":1,"parameterNumberName":"U-component_of_WINDS"},"data":[-7.2037,-7.2264,-7.222,-7.2458,-7.2459,-7.2613,-7.2654,-7.2702,-7.2729,-7.2907,-7.3001,-7.2979,-7.2987,-7.3088,-7.3187,-7.3175,-7.3221,-7.3333,-7.3299,-7.2837,-7.277,-7.2706,-7.265,-7.3343,-7.3344,-7.3783,-7.3788,-7.3791,-7.17,-7.1703,-7.1817,-7.1896,-7.1993,-7.1857,-7.1909,-7.1998,-7.214,-7.2175,-7.2265,-7.2418,-7.2533,-7.2502,-7.2605,-7.2709,-7.2651,-7.274,-7.2732,-7.2735,-7.2239,-7.218,-7.2785,-7.2785,-7.2785,-7.2784,-7.2784,-7.2784,-7.1075,-7.1213,-7.1235,-7.1357,-7.1384,-7.1438,-7.1562,-7.1531,-7.164,-7.1743,-7.1667,-7.1827,-7.1852,-7.1953,-7.1976,-7.2098,-7.1991,-7.2074,-7.2095,-7.2118,-7.215,-7.1522,-7.2113,-7.2111,-7.2109,-7.2108,-7.2106,0,-7.0603,-7.0556,-7.0661,-7.0755,-7.0841,-7.0908,-7.0962,-7.1037,-7.0921,-7.1017,-7.1151,-7.1221,-7.1358,-7.1479,-7.1564,-7.157,-7.1439,-7.1421,-7.1478,-7.1518,-7.1542,-7.1533,-7.0727,-7.1404,-7.1398,-7.1394,-7.139,-7.1388,-6.9969,-7.0136,-7.0136,-7.0217,-7.0234,-7.0366,-7.0435,-7.0319,-7.0398,-7.0446,-7.0574,-7.0693,-7.0782,-7.1005,-7.0966,-7.1069,-7.1007,-7.127,-7.1021,-7.1052,-7.1011,-7.1003,-7.1019,-7.1322,-7.133,-7.1337,-7.1343,0,-6.9616,-6.9541,-6.9785,-6.9768,-6.9769,-6.995,-6.9935,-7.0068,-7.0022,-7.0199,-7.0233,-7.0163,-7.0297,-7.0214,-7.0351,-7.0304,-7.0599,-7.0535,-7.0589,-7.0572,-7.08,-7.0781,-7.1554,-7.1649,-7.0928,-7.0935,-7.0941,0,-6.9047,-6.927,-6.9144,-6.929,-6.9533,-6.9411,-6.9655,-6.964,-6.9659,-6.9797,-6.9634,-6.9768,-6.9641,-6.9762,-6.9693,-6.9919,-6.9944,-6.9922,-6.9902,-6.9938,-6.9942,-6.9979,-6.9947,-6.9847,-6.9843,-6.984,-6.9837,0,-6.8504,-6.8698,-6.8933,-6.8965,-6.897,-6.9083,-6.9091,-6.9111,-6.918,-6.9255,-6.9298,-6.9396,-6.945,-6.9527,-6.9438,-6.9272,-6.9712,-6.9466,-6.9689,-6.9692,-6.9793,-6.9789,-7.0492,-6.9832,-6.9831,-6.983,-6.9828,0,-6.8032,-6.8111,-6.8464,-6.8463,-6.8519,-6.8674,-6.876,-6.8874,-6.8907,-6.8873,-6.8932,-6.8814,-6.9004,-6.8765,-6.9026,-6.8835,-6.8898,-6.8893,-6.8907,-6.8921,-6.8657,-6.9067,-6.9744,-6.9812,-6.8931,-6.8924,-6.8917,0,-6.7432,-6.7767,-6.7663,-6.8001,-6.8144,-6.795,-6.812,-6.8154,-6.8123,-6.8239,-6.8202,-6.8337,-6.8142,-6.8172,-6.8312,-6.8281,-6.8529,-6.8245,-6.8415,-6.8423,-6.8414,-6.9035,-6.9157,-6.9604,-6.882,-6.883,-6.8837,0,-6.6957,-6.696,-6.7028,-6.7059,-6.7085,-6.7204,-6.7399,-6.7504,-6.7587,-6.7644,-6.7805,-6.7991,-6.7851,-6.7904,-6.7818,-6.7968,-6.8357,-6.7798,-6.7797,-6.7903,-6.8764,-6.8879,-6.8955,-6.8266,-6.8278,-6.8287,-6.8761,0,-6.6263,-6.642,-6.6599,-6.6674,-6.6753,-6.6959,-6.6871,-6.6964,-6.6872,-6.6834,-6.7069,-6.7077,-6.7186,-6.7249,-6.7162,-6.7531,-6.7457,-6.7307,-6.707,-6.7478,-6.7632,-6.7695,-6.6848,-6.684,-6.6834,-6.6829,0,0,-6.5708,-6.5931,-6.5812,-6.5997,-6.6055,-6.5851,-6.608,-6.6113,-6.6188,-6.6233,-6.6099,-6.6365,-6.6379,-6.6673,-6.6793,-6.6838,-6.6896,-6.6757,-6.7284,-6.7336,-6.7383,-6.7549,-6.7616,-6.6818,-6.6815,-6.6813,-6.6811,0,-6.5436,-6.5452,-6.5679,-6.5708,-6.5746,-6.5694,-6.5749,-6.5751,-6.5738,-6.5967,-6.5796,-6.5926,-6.6143,-6.6179,-6.6226,-6.6718,-6.6584,-6.6758,-6.7053,-6.7224,-6.7284,-6.7336,-6.7512,-6.7576,-6.6796,-6.6797,-6.6797,0,-6.4953,-6.4954,-6.5054,-6.5178,-6.5201,-6.5354,-6.5083,-6.5256,-6.5368,-6.5137,-6.5368,-6.5361,-6.5402,-6.5692,-6.5819,-6.5702,-6.6305,-6.6099,-6.6136,-6.6149,-6.631,-6.6382,-6.6446,-6.5605,-6.5601,-6.5597,0,0,-6.4731,-6.4876,-6.4841,-6.5113,-6.5139,-6.5065,-6.5137,-6.5054,-6.5094,-6.5111,-6.5099,-6.5144,-6.5267,-6.5353,-6.5464,-6.5796,-6.5795,-6.5956,-6.6012,-6.6058,-6.6097,-6.627,-6.6341,-6.5583,-6.5583,-6.5582,0,0,-6.4624,-6.4594,-6.4494,-6.4799,-6.4842,-6.4826,-6.4996,-6.4874,-6.4965,-6.4932,-6.48,-6.4806,-6.5075,-6.5076,-6.4895,-6.5379,-6.5146,-6.5188,-6.5369,-6.5439,-6.5494,-6.5489,-6.462,0,0,0,0,0,-6.4301,-6.4597,-6.4507,-6.4544,-6.4701,-6.4876,-6.4895,-6.4792,-6.4629,-6.4766,-6.4736,-6.4586,-6.495,-6.4786,-6.4826,-6.5031,-6.5399,-6.5431,-6.5462,-6.5773,-6.5847,-6.591,0,0,0,0,0,0,-6.4314,-6.4361,-6.4498,-6.4497,-6.4531,-6.4864,-6.4565,-6.4545,-6.4611,-6.4579,-6.4596,-6.4587,-6.4503,-6.4759,-6.4797,-6.4993,-6.4606,-6.5411,-6.5439,-6.5464,-6.5799,-6.5859,-6.5911,0,0,0,0,0,-6.4325,-6.4362,-6.464,-6.4492,-6.4522,-6.4455,-6.4553,-6.4534,-6.4584,-6.4539,-6.4524,-6.45,-6.4511,-6.4535,-6.4781,-6.4979,-6.458,-6.4594,-6.5429,-6.5451,-6.5471,-6.5828,0,0,0,0,0,0,-6.4333,-6.4346,-6.4644,-6.4649,-6.4372,-6.4434,-6.444,-6.4525,-6.4536,-6.4525,-6.4434,-6.4409,-6.4521,-6.4538,-6.4558,-6.498,-6.4558,-6.4573,-6.4582,-6.5446,-6.5463,-6.5479,0,0,0,0,0,0,-6.4325,-6.4352,-6.4646,-6.4501,-6.4488,-6.4416,-6.4421,-6.4615,-6.4539,-6.443,-6.4409,-6.4423,-6.4491,-6.4541,-6.4556,-6.4862,-6.4541,-6.4555,-6.4565,-6.4571,-6.546,-6.5474,0,0,0,0,0,0,-6.4335,-6.4358,-6.4499,-6.449,-6.4478,-6.4528,-6.4584,-6.4751,-6.4414,-6.4433,-6.4381,-6.4365,-6.4499,-6.4511,-6.4556,-6.4857,-6.4861,-6.4542,-6.4551,-6.4558,-6.4562,0,0,0,0,0,0,0,-6.4342,-6.4213,-6.4613,-6.448,-6.4469,-6.4697,-6.4698,-6.47,-6.4411,-6.4397,-6.4384,-6.4372,-6.4461,-6.4476,-6.4492,-6.4853,0,0,-6.454,-6.4547,0,0,0,0,0,0,0,0,-6.4201,-6.421,-6.4614,-6.4615,-6.4616,-6.4697,-6.4698,-6.4699,-6.4408,-6.4398,-6.4387,-6.4377,-6.4465,-6.4478,-6.449,0,0,0,0,0,0,0,0,0,0,0,0,0,0,0,-6.4614,-6.4615,0,-6.4697,-6.4698,-6.4699,-6.4407,-6.4398,-6.4389,-6.4381,-6.4469,-6.4479,-6.4489,0,0,0,0,0,0,0,0,0,0,0,0,0,0,0,0,0,0,0,0,0,0,0,0,0,0,0,0,0,0,0,0,0,0,0,0,0,0,0,0,0,0,0,0,0,0,0,0,0,0,0,0,0,0,0,0,0,0,0,0,0,0,0,0,0,0,0,0,0]}],[{"header":{"parameterUnit":"kt","parameterCategory":2,"dx":1,"dy":1,"la1":30.253999710083008,"la2":30.299108505249023,"lo1":-89.0895004272461,"lo2":-89.04439544677734,"nx":28,"ny":28,"refTime":"2022-10-25T21:00:00:Z","depth":0,"parameterNumber":2,"parameterNumberName":"V-component_of_WINDS"},"data":[-7.1971,-7.2066,-7.207,-7.218,-7.2202,-7.2276,-7.2303,-7.2339,-7.2368,-7.2454,-7.2504,-7.2516,-7.2544,-7.2602,-7.2655,-7.2658,-7.2678,-7.2708,-7.2706,-7.2573,-7.2554,-7.2536,-7.2513,-7.2714,-7.2714,-7.2843,-7.2844,-7.2845,-7.1866,-7.189,-7.1951,-7.2012,-7.2062,-7.2036,-7.2081,-7.2124,-7.2191,-7.2227,-7.2278,-7.2354,-7.2414,-7.2432,-7.2489,-7.253,-7.2519,-7.2545,-7.2539,-7.2543,-7.2401,-7.2378,-7.2552,-7.2552,-7.2552,-7.2552,-7.2552,-7.2552,-7.1677,-7.1735,-7.1775,-7.1841,-7.1873,-7.1913,-7.1968,-7.1983,-7.2041,-7.2104,-7.2097,-7.2172,-7.2208,-7.2279,-7.2303,-7.2359,-7.2331,-7.2359,-7.2365,-7.2371,-7.2377,-7.2183,-7.237,-7.2369,-7.2369,-7.2368,-7.2368,0,-7.1538,-7.1538,-7.1598,-7.1658,-7.1707,-7.1754,-7.1797,-7.1831,-7.1831,-7.1878,-7.1947,-7.1987,-7.2064,-7.2126,-7.2181,-7.2201,-7.2174,-7.2174,-7.2193,-7.2194,-7.2188,-7.2188,-7.1952,-7.2168,-7.2166,-7.2165,-7.2164,-7.2163,-7.1344,-7.1413,-7.1458,-7.1499,-7.1525,-7.1591,-7.1631,-7.1626,-7.1668,-7.1719,-7.177,-7.1834,-7.1885,-7.1993,-7.2007,-7.2064,-7.2051,-7.2132,-7.2059,-7.2058,-7.2047,-7.2041,-7.2045,-7.2145,-7.2147,-7.2149,-7.2151,0,-7.1232,-7.1241,-7.135,-7.1388,-7.14,-7.1471,-7.1502,-7.1559,-7.1568,-7.1647,-7.1666,-7.1678,-7.1745,-7.1747,-7.1824,-7.1821,-7.1931,-7.192,-7.1918,-7.1914,-7.1983,-7.1975,-7.2218,-7.2248,-7.2045,-7.2047,-7.2048,0,-7.1068,-7.1159,-7.1166,-7.1229,-7.1329,-7.1322,-7.142,-7.1438,-7.1471,-7.1534,-7.1507,-7.1566,-7.156,-7.1618,-7.1616,-7.1707,-7.1723,-7.1725,-7.1722,-7.1725,-7.1724,-7.1743,-7.1732,-7.172,-7.1719,-7.1718,-7.1717,0,-7.089,-7.1003,-7.1106,-7.1132,-7.1183,-7.123,-7.1253,-7.1291,-7.133,-7.1381,-7.1406,-7.1466,-7.1498,-7.1543,-7.1539,-7.1489,-7.1653,-7.1583,-7.1654,-7.1654,-7.1688,-7.1685,-7.1903,-7.1715,-7.1715,-7.1715,-7.1714,0,-7.0757,-7.0813,-7.0963,-7.1002,-7.1032,-7.11,-7.1159,-7.1219,-7.126,-7.1264,-7.1304,-7.1286,-7.137,-7.1299,-7.1412,-7.1348,-7.1379,-7.1391,-7.1396,-7.14,-7.1321,-7.1438,-7.1649,-7.1669,-7.1407,-7.1405,-7.1402,0,-7.0548,-7.0703,-7.07,-7.0842,-7.0913,-7.0878,-7.0953,-7.0992,-7.1004,-7.1063,-7.1075,-7.1143,-7.1092,-7.1113,-7.117,-7.1183,-7.1268,-7.1173,-7.1251,-7.1254,-7.1237,-7.1433,-7.1462,-7.1603,-7.137,-7.1373,-7.1376,0,-7.0387,-7.0452,-7.0478,-7.0507,-7.0561,-7.0621,-7.0709,-7.0777,-7.0816,-7.0865,-7.0935,-7.1034,-7.0997,-7.1034,-7.1026,-7.1084,-7.121,-7.1037,-7.1038,-7.1064,-7.1356,-7.1382,-7.1406,-7.1191,-7.1195,-7.1198,-7.135,0,-7.0177,-7.0257,-7.033,-7.0399,-7.0447,-7.0538,-7.0543,-7.0592,-7.0579,-7.059,-7.0695,-7.0729,-7.0797,-7.0827,-7.0816,-7.0951,-7.0927,-7.0889,-7.0818,-7.0948,-7.0998,-7.1018,-7.0743,-7.0741,-7.074,-7.0738,0,0,-6.9972,-7.0088,-7.0084,-7.017,-7.0209,-7.0173,-7.0269,-7.0303,-7.0373,-7.0399,-7.0361,-7.0505,-7.0534,-7.0661,-7.0702,-7.0731,-7.0754,-7.071,-7.0887,-7.0904,-7.0919,-7.0972,-7.0994,-7.0735,-7.0735,-7.0734,-7.0734,0,-6.9896,-6.9933,-7.0031,-7.0066,-7.0119,-7.0127,-7.015,-7.0195,-7.0206,-7.0313,-7.0278,-7.0342,-7.0459,-7.0493,-7.0525,-7.0695,-7.0664,-7.0716,-7.0804,-7.087,-7.0889,-7.0906,-7.0962,-7.0983,-7.0729,-7.073,-7.073,0,-6.9736,-6.9771,-6.982,-6.9913,-6.9947,-7.0023,-6.995,-7.0035,-7.009,-7.0044,-7.0149,-7.0169,-7.0216,-7.0338,-7.0392,-7.0358,-7.0581,-7.0514,-7.0524,-7.0529,-7.0593,-7.0616,-7.0636,-7.0368,-7.0367,-7.0366,0,0,-6.9668,-6.9745,-6.9781,-6.9897,-6.9921,-6.9934,-6.9976,-6.9968,-7.0013,-7.0032,-7.0056,-7.01,-7.0166,-7.0211,-7.0275,-7.0409,-7.0416,-7.0469,-7.0486,-7.05,-7.0512,-7.058,-7.0602,-7.0361,-7.0361,-7.0361,0,0,-6.9636,-6.9683,-6.9664,-6.9799,-6.9844,-6.9886,-6.9955,-6.9931,-6.999,-6.9979,-6.9969,-6.998,-7.0094,-7.0115,-7.005,-7.0249,-7.0179,-7.0195,-7.0231,-7.0252,-7.0269,-7.026,-6.9979,0,0,0,0,0,-6.9561,-6.9677,-6.9659,-6.9683,-6.98,-6.9896,-6.9911,-6.9906,-6.9856,-6.991,-6.9927,-6.9892,-7.0077,-7.0019,-7.0041,-7.0113,-7.0299,-7.031,-7.032,-7.0398,-7.042,-7.0439,0,0,0,0,0,0,-6.9571,-6.96,-6.9656,-6.9703,-6.9729,-6.9892,-6.9806,-6.9808,-6.985,-6.9842,-6.989,-6.9894,-6.989,-7.0007,-7.0027,-7.0096,-6.9972,-7.0303,-7.0312,-7.0321,-7.0406,-7.0424,-7.044,0,0,0,0,0,-6.9578,-6.9601,-6.9792,-6.9701,-6.9724,-6.9745,-6.9802,-6.9803,-6.9835,-6.9862,-6.9864,-6.9828,-6.9892,-6.9909,-7.0019,-7.0087,-6.9958,-6.9965,-7.0309,-7.0317,-7.0323,-7.0415,0,0,0,0,0,0,-6.9583,-6.9602,-6.9796,-6.9803,-6.9658,-6.9736,-6.9748,-6.9798,-6.9851,-6.9855,-6.9798,-6.9791,-6.9895,-6.9907,-6.992,-7.0084,-6.9946,-6.9954,-6.9959,-7.0315,-7.0321,-7.0326,0,0,0,0,0,0,-6.9589,-6.9608,-6.98,-6.9745,-6.9746,-6.9727,-6.9738,-6.9832,-6.9852,-6.9784,-6.978,-6.9794,-6.9875,-6.9907,-6.9917,-7.0063,-6.9938,-6.9945,-6.995,-6.9953,-7.0319,-7.0324,0,0,0,0,0,0,-6.9597,-6.9613,-6.9743,-6.9744,-6.9744,-6.9817,-6.9809,-6.9929,-6.9808,-6.9782,-6.9797,-6.9792,-6.9876,-6.9885,-6.9915,-7.0057,-7.0061,-6.9938,-6.9943,-6.9947,-6.9949,0,0,0,0,0,0,0,-6.9603,-6.9498,-6.9757,-6.9743,-6.9742,-6.9864,-6.9866,-6.9868,-6.9807,-6.9803,-6.9798,-6.9794,-6.9896,-6.9904,-6.9912,-7.0052,0,0,-6.9937,-6.9941,0,0,0,0,0,0,0,0,-6.9491,-6.9496,-6.9757,-6.9759,-6.976,-6.9864,-6.9866,-6.9867,-6.9806,-6.9803,-6.9799,-6.9796,-6.9898,-6.9905,-6.9911,0,0,0,0,0,0,0,0,0,0,0,0,0,0,0,-6.9758,-6.9759,0,-6.9865,-6.9866,-6.9867,-6.9806,-6.9803,-6.98,-6.9797,-6.99,-6.9905,-6.9911,0,0,0,0,0,0,0,0,0,0,0,0,0,0,0,0,0,0,0,0,0,0,0,0,0,0,0,0,0,0,0,0,0,0,0,0,0,0,0,0,0,0,0,0,0,0,0,0,0,0,0,0,0,0,0,0,0,0,0,0,0,0,0,0,0,0,0,0,0]}]]]